Weather History for Fallon NAS, NV

Change the Weather History Date:

Sunday, March 16, 2014

  Actual Average Record
Temperature  
Mean Temperature 55 °F -  
Max Temperature 77 °F 59 °F 80 °F (2007)
Min Temperature 35 °F 28 °F 12 °F (1935)
Degree Days  
Heating Degree Days 10    
Growing Degree Days 5 (Base 50)    
Moisture  
Dew Point 15 °F    
Average Humidity 24    
Maximum Humidity 48    
Minimum Humidity 8    
Precipitation  
Precipitation 0.00 in - - ()
Sea Level Pressure  
Sea Level Pressure 30.17 in    
Wind  
Wind Speed 8 mph (SSW)    
Max Wind Speed 22 mph    
Max Gust Speed 28 mph    
Visibility 10 miles    
Events      
Averages and records for this station are not official NWS values.
T = Trace of Precipitation, MM = Missing Value Source: NWS Daily Summary

Daily Weather History Graph

Daily Weather History Graph

Search for Another Location

Airport:

Trip Planner

Search our weather history database for the weather conditions in past years. The results will help you decide how hot, cold, wet, or windy it might be!

Date:

Astronomy

Mar. 16, 2014 Rise Set
Actual Time 7:04 AM PDT 7:02 PM PDT
Civil Twilight 6:37 AM PDT 7:29 PM PDT
Nautical Twilight 6:06 AM PDT 8:00 PM PDT
Astronomical Twilight 5:34 AM PDT 8:32 PM PDT
Moon 7:24 PM PDT (3/16) 6:50 AM PDT (3/16)
Length of Visible Light 12h 51m
Length of Day
11h 58m
Full, 100% of the Moon is Illuminated
Mar 16
Full
Mar 23
Last Quarter
Mar 30
New
Apr 7
First Quarter
Apr 15
Full

Hourly Weather History & Observations

Time (PDT) Temp. Windchill Dew Point Humidity Pressure Visibility Wind Dir Wind Speed Gust Speed Precip Events Conditions
12:56 AM 37.9 °F 32.7 °F 17.1 °F 43% 30.30 in 10.0 mi SSE 6.9 mph - N/A   Clear
1:56 AM 39.9 °F 35.1 °F 18.0 °F 41% 30.30 in 10.0 mi SE 6.9 mph - N/A   Clear
2:56 AM 36.0 °F 33.3 °F 18.0 °F 48% 30.29 in 10.0 mi WSW 3.5 mph - N/A   Clear
3:56 AM 37.9 °F 32.7 °F 18.0 °F 45% 30.28 in 10.0 mi South 6.9 mph - N/A   Clear
4:56 AM 37.0 °F 32.4 °F 17.1 °F 44% 30.28 in 10.0 mi SSW 5.8 mph - N/A   Clear
5:56 AM 37.9 °F 34.4 °F 16.0 °F 41% 30.28 in 10.0 mi South 4.6 mph - N/A   Clear
6:56 AM 35.1 °F 30.1 °F 17.1 °F 48% 30.27 in 10.0 mi South 5.8 mph - N/A   Clear
7:56 AM 39.0 °F 34.8 °F 18.0 °F 43% 30.28 in 10.0 mi SE 5.8 mph - N/A   Clear
8:56 AM 45.0 °F 42.6 °F 18.0 °F 34% 30.28 in 10.0 mi SSW 4.6 mph - N/A   Clear
9:56 AM 57.0 °F - 17.1 °F 21% 30.27 in 10.0 mi South 9.2 mph - N/A   Clear
10:56 AM 62.1 °F - 14.0 °F 15% 30.25 in 10.0 mi South 11.5 mph - N/A   Clear
11:01 AM 63.0 °F - 14.0 °F 15% 30.38 in 10.0 mi South 11.5 mph - N/A   Mostly Cloudy
11:56 AM 66.0 °F - 14.0 °F 13% 30.23 in 10.0 mi South 6.9 mph - N/A   Mostly Cloudy
12:56 PM 70.0 °F - 14.0 °F 12% 30.20 in 10.0 mi SSW 9.2 mph - N/A   Mostly Cloudy
1:56 PM 72.0 °F - 12.9 °F 10% 30.16 in 10.0 mi Variable 4.6 mph - N/A   Overcast
2:56 PM 73.0 °F - 12.0 °F 10% 30.12 in 10.0 mi SSE 6.9 mph - N/A   Overcast
3:56 PM 75.0 °F - 10.9 °F 9% 30.09 in 10.0 mi SSW 6.9 mph - N/A   Overcast
4:56 PM 75.0 °F - 12.0 °F 9% 30.05 in 10.0 mi SW 8.1 mph 20.7 mph N/A   Overcast
5:56 PM 73.9 °F - 7.0 °F 8% 30.03 in 10.0 mi West 11.5 mph - N/A   Overcast
6:56 PM 71.1 °F - 10.0 °F 9% 30.02 in 10.0 mi West 19.6 mph - N/A   Clear
7:56 PM 66.0 °F - 7.0 °F 10% 30.01 in 10.0 mi WSW 21.9 mph 27.6 mph N/A   Clear
8:56 PM 64.0 °F - 16.0 °F 16% 30.01 in 10.0 mi West 21.9 mph 27.6 mph N/A   Clear
9:56 PM 61.0 °F - 17.1 °F 18% 30.01 in 10.0 mi WSW 10.4 mph - N/A   Clear
10:56 PM 57.0 °F - 17.1 °F 21% 29.98 in 10.0 mi SW 8.1 mph - N/A   Clear
11:56 PM 61.0 °F - 10.9 °F 14% 29.94 in 10.0 mi SW 19.6 mph - N/A   Clear